25-01-2022, 00:00:05,    119,    0.0,    0.6,   0.00,   0.00, 1028.3,   76.9, -999.0
25-01-2022, 00:00:15,    119,    0.0,    0.7,   0.00,   0.00, 1028.3,   77.1, -999.0
25-01-2022, 00:00:24,    119,    0.0,    0.7,   0.00,   0.00, 1028.3,   77.2, -999.0
25-01-2022, 00:00:34,    119,    0.0,    0.6,   0.00,   0.00, 1028.3,   77.2, -999.0
25-01-2022, 00:00:45,    119,    0.0,    0.7,   0.00,   0.00, 1028.3,   77.3, -999.0
25-01-2022, 00:00:54,    119,    0.0,    0.7,   0.00,   0.00, 1028.3,   77.3, -999.0
25-01-2022, 00:01:04,    119,    0.0,    0.7,   0.00,   0.00, 1028.3,   77.3, -999.0
25-01-2022, 00:01:14,    120,    0.0,    0.7,   0.00,   0.00, 1028.3,   77.2, -999.0
25-01-2022, 00:01:24,    120,    0.0,    0.7,   0.00,   0.00, 1028.3,   77.3, -999.0
25-01-2022, 00:01:34,    119,    0.0,    0.7,   0.00,   0.00, 1028.3,   77.4, -999.0
25-01-2022, 00:01:44,    119,    0.0,    0.7,   0.00,   0.00, 1028.3,   77.5, -999.0
25-01-2022, 00:01:54,    120,    0.0,    0.7,   0.00,   0.00, 1028.3,   77.5, -999.0
25-01-2022, 00:02:04,    120,    0.0,    0.7,   0.00,   0.00, 1028.3,   77.4, -999.0
25-01-2022, 00:02:14,    119,    0.0,    0.7,   0.00,   0.00, 1028.3,   77.4, -999.0
25-01-2022, 00:02:24,    119,    0.0,    0.8,   0.00,   0.00, 1028.3,   77.5, -999.0
25-01-2022, 00:02:34,    119,    0.0,    0.8,   0.00,   0.00, 1028.3,   77.4, -999.0
25-01-2022, 00:02:44,    119,    0.0,    0.8,   0.00,   0.00, 1028.3,   77.5, -999.0
25-01-2022, 00:02:54,    120,    0.0,    0.7,   0.00,   0.00, 1028.3,   77.5, -999.0
25-01-2022, 00:03:04,    119,    0.0,    0.8,   0.00,   0.00, 1028.3,   77.4, -999.0
25-01-2022, 00:03:14,    119,    0.0,    0.7,   0.00,   0.00, 1028.3,   77.5, -999.0
25-01-2022, 00:03:24,    119,    0.0,    0.8,   0.00,   0.00, 1028.3,   77.5, -999.0
25-01-2022, 00:03:33,    119,    0.0,    0.8,   0.00,   0.00, 1028.3,   77.6, -999.0
25-01-2022, 00:03:43,    119,    0.0,    0.7,   0.00,   0.00, 1028.3,   77.7, -999.0
25-01-2022, 00:03:54,    119,    0.0,    0.7,   0.00,   0.00, 1028.4,   77.6, -999.0
25-01-2022, 00:04:03,    119,    0.0,    0.7,   0.00,   0.00, 1028.3,   77.5, -999.0
25-01-2022, 00:04:13,    119,    0.0,    0.8,   0.00,   0.00, 1028.3,   77.5, -999.0
25-01-2022, 00:04:24,    119,    0.0,    0.8,   0.00,   0.00, 1028.4,   77.6, -999.0
25-01-2022, 00:04:33,    120,    0.0,    0.8,   0.00,   0.00, 1028.4,   77.6, -999.0
25-01-2022, 00:04:43,    119,    0.0,    0.8,   0.00,   0.00, 1028.4,   77.7, -999.0
25-01-2022, 00:04:53,    119,    0.0,    0.8,   0.00,   0.00, 1028.4,   77.5, -999.0
25-01-2022, 00:05:03,    120,    0.0,    0.8,   0.00,   0.00, 1028.3,   77.5, -999.0
25-01-2022, 00:05:13,    119,    0.0,    0.8,   0.00,   0.00, 1028.4,   77.5, -999.0
25-01-2022, 00:05:23,    119,    0.0,    0.8,   0.00,   0.00, 1028.4,   77.4, -999.0
25-01-2022, 00:05:33,    120,    0.0,    0.7,   0.00,   0.00, 1028.4,   77.6, -999.0
25-01-2022, 00:05:43,    120,    0.0,    0.8,   0.00,   0.00, 1028.4,   77.5, -999.0
25-01-2022, 00:05:53,    119,    0.0,    0.7,   0.00,   0.00, 1028.4,   77.7, -999.0
25-01-2022, 00:06:03,    120,    0.0,    0.7,   0.00,   0.00, 1028.4,   77.7, -999.0
25-01-2022, 00:06:13,    119,    0.0,    0.8,   0.00,   0.00, 1028.4,   77.8, -999.0
25-01-2022, 00:06:23,    119,    0.0,    0.8,   0.00,   0.00, 1028.4,   77.7, -999.0
25-01-2022, 00:06:33,    119,    0.0,    0.8,   0.00,   0.00, 1028.4,   77.6, -999.0
25-01-2022, 00:06:43,    120,    0.0,    0.8,   0.00,   0.00, 1028.4,   77.6, -999.0
25-01-2022, 00:06:53,    120,    0.0,    0.9,   0.00,   0.00, 1028.4,   77.8, -999.0
25-01-2022, 00:07:03,    119,    0.0,    0.8,   0.00,   0.00, 1028.4,   77.7, -999.0
25-01-2022, 00:07:12,    120,    0.0,    0.9,   0.00,   0.00, 1028.4,   77.6, -999.0
25-01-2022, 00:07:22,    119,    0.0,    0.9,   0.00,   0.00, 1028.4,   77.6, -999.0
25-01-2022, 00:07:33,    119,    0.0,    0.9,   0.00,   0.00, 1028.4,   77.6, -999.0
25-01-2022, 00:07:42,    119,    0.0,    0.9,   0.00,   0.00, 1028.4,   77.7, -999.0
25-01-2022, 00:07:52,    119,    0.0,    0.9,   0.00,   0.00, 1028.4,   77.6, -999.0
25-01-2022, 00:08:02,    119,    0.0,    0.9,   0.00,   0.00, 1028.4,   77.6, -999.0
25-01-2022, 00:08:12,    119,    0.0,    0.9,   0.00,   0.00, 1028.4,   77.7, -999.0
25-01-2022, 00:08:22,    119,    0.0,    0.9,   0.00,   0.00, 1028.4,   77.7, -999.0
25-01-2022, 00:08:32,    119,    0.0,    0.9,   0.00,   0.00, 1028.3,   77.7, -999.0
25-01-2022, 00:08:42,    119,    0.0,    0.9,   0.00,   0.00, 1028.4,   77.6, -999.0
25-01-2022, 00:08:52,    119,    0.0,    0.8,   0.00,   0.00, 1028.3,   77.7, -999.0
25-01-2022, 00:09:02,    119,    0.0,    0.8,   0.00,   0.00, 1028.3,   77.5, -999.0
25-01-2022, 00:09:12,    119,    0.0,    0.9,   0.00,   0.00, 1028.4,   77.6, -999.0
25-01-2022, 00:09:22,    120,    0.0,    0.9,   0.00,   0.00, 1028.4,   77.7, -999.0
25-01-2022, 00:09:32,    120,    0.0,    1.0,   0.00,   0.00, 1028.3,   77.6, -999.0
25-01-2022, 00:09:42,    120,    0.0,    1.0,   0.00,   0.00, 1028.4,   77.7, -999.0
25-01-2022, 00:09:52,    120,    0.0,    1.1,   0.00,   0.00, 1028.4,   77.9, -999.0
25-01-2022, 00:10:02,    120,    0.0,    1.0,   0.00,   0.00, 1028.3,   78.0, -999.0
25-01-2022, 00:10:12,    119,    0.0,    1.0,   0.00,   0.00, 1028.3,   77.9, -999.0
25-01-2022, 00:10:22,    120,    0.0,    1.1,   0.00,   0.00, 1028.4,   77.8, -999.0
25-01-2022, 00:10:31,    119,    0.0,    1.1,   0.00,   0.00, 1028.3,   77.8, -999.0
25-01-2022, 00:10:42,    120,    0.0,    1.1,   0.00,   0.00, 1028.4,   77.7, -999.0
25-01-2022, 00:10:51,    119,    0.0,    1.0,   0.00,   0.00, 1028.4,   77.6, -999.0
25-01-2022, 00:11:01,    119,    0.0,    1.1,   0.00,   0.00, 1028.4,   77.6, -999.0
25-01-2022, 00:11:12,    119,    0.0,    1.1,   0.00,   0.00, 1028.4,   77.5, -999.0
25-01-2022, 00:11:21,    119,    0.0,    1.1,   0.00,   0.00, 1028.3,   77.5, -999.0
25-01-2022, 00:11:31,    119,    0.0,    1.0,   0.00,   0.00, 1028.3,   77.4, -999.0
25-01-2022, 00:11:41,    119,    0.0,    1.0,   0.00,   0.00, 1028.4,   77.4, -999.0
25-01-2022, 00:11:51,    119,    0.0,    1.1,   0.00,   0.00, 1028.4,   77.5, -999.0
25-01-2022, 00:12:01,    120,    0.0,    1.0,   0.00,   0.00, 1028.4,   77.4, -999.0
25-01-2022, 00:12:11,    119,    0.0,    1.1,   0.00,   0.00, 1028.4,   77.5, -999.0
25-01-2022, 00:12:21,    119,    0.0,    1.1,   0.00,   0.00, 1028.4,   77.5, -999.0
25-01-2022, 00:12:31,    119,    0.0,    1.1,   0.00,   0.00, 1028.4,   77.4, -999.0
25-01-2022, 00:12:41,    120,    0.0,    1.1,   0.00,   0.00, 1028.4,   77.6, -999.0
25-01-2022, 00:12:51,    119,    0.0,    1.2,   0.00,   0.00, 1028.4,   77.8, -999.0
25-01-2022, 00:13:01,    119,    0.0,    1.2,   0.00,   0.00, 1028.4,   77.7, -999.0
25-01-2022, 00:13:11,    119,    0.0,    1.1,   0.00,   0.00, 1028.4,   77.5, -999.0
25-01-2022, 00:13:21,    119,    0.0,    1.1,   0.00,   0.00, 1028.4,   77.5, -999.0
25-01-2022, 00:13:31,    119,    0.0,    1.1,   0.00,   0.00, 1028.4,   77.4, -999.0
25-01-2022, 00:13:41,    119,    0.0,    1.1,   0.00,   0.00, 1028.4,   77.3, -999.0
25-01-2022, 00:13:51,    119,    0.0,    1.1,   0.00,   0.00, 1028.4,   77.5, -999.0
25-01-2022, 00:14:01,    120,    0.0,    1.1,   0.00,   0.00, 1028.4,   77.5, -999.0
25-01-2022, 00:14:10,    119,    0.0,    1.1,   0.00,   0.00, 1028.4,   77.5, -999.0
25-01-2022, 00:14:21,    119,    0.0,    1.1,   0.00,   0.00, 1028.4,   77.4, -999.0
25-01-2022, 00:14:30,    120,    0.0,    1.1,   0.00,   0.00, 1028.4,   77.4, -999.0
25-01-2022, 00:14:40,    119,    0.0,    1.1,   0.00,   0.00, 1028.4,   77.4, -999.0
25-01-2022, 00:14:50,    119,    0.0,    1.1,   0.00,   0.00, 1028.4,   77.3, -999.0
25-01-2022, 00:15:00,    119,    0.0,    1.1,   0.00,   0.00, 1028.4,   77.4, -999.0
25-01-2022, 00:15:10,    119,    0.0,    1.1,   0.00,   0.00, 1028.4,   77.2, -999.0
25-01-2022, 00:15:20,    119,    0.0,    1.1,   0.00,   0.00, 1028.4,   77.2, -999.0
25-01-2022, 00:15:30,    119,    0.0,    1.1,   0.00,   0.00, 1028.4,   77.2, -999.0
25-01-2022, 00:15:40,    119,    0.0,    1.1,   0.00,   0.00, 1028.4,   77.3, -999.0
25-01-2022, 00:15:50,    119,    0.0,    1.0,   0.00,   0.00, 1028.4,   77.1, -999.0
25-01-2022, 00:16:00,    119,    0.0,    1.1,   0.00,   0.00, 1028.4,   77.1, -999.0
25-01-2022, 00:16:10,    120,    0.0,    1.1,   0.00,   0.00, 1028.4,   77.2, -999.0
25-01-2022, 00:16:20,    119,    0.0,    1.1,   0.00,   0.00, 1028.4,   77.4, -999.0
25-01-2022, 00:16:30,    119,    0.0,    1.1,   0.00,   0.00, 1028.4,   77.4, -999.0
25-01-2022, 00:16:40,    119,    0.0,    1.1,   0.00,   0.00, 1028.4,   77.4, -999.0
25-01-2022, 00:16:50,    119,    0.0,    1.1,   0.00,   0.00, 1028.4,   77.4, -999.0
25-01-2022, 00:17:00,    119,    0.0,    1.1,   0.00,   0.00, 1028.4,   77.5, -999.0
25-01-2022, 00:17:10,    119,    0.0,    1.1,   0.00,   0.00, 1028.4,   77.2, -999.0
25-01-2022, 00:17:19,    119,    0.0,    1.1,   0.00,   0.00, 1028.4,   77.3, -999.0
25-01-2022, 00:17:30,    119,    0.1,    1.1,   0.00,   0.00, 1028.5,   77.3, -999.0
25-01-2022, 00:17:40,    119,    0.0,    1.0,   0.00,   0.00, 1028.4,   77.1, -999.0
25-01-2022, 00:17:49,    119,    0.1,    0.9,   0.00,   0.00, 1028.5,   77.1, -999.0
25-01-2022, 00:17:59,    120,    0.0,    1.0,   0.00,   0.00, 1028.4,   77.1, -999.0
25-01-2022, 00:18:09,    120,    0.2,    1.0,   0.00,   0.00, 1028.4,   77.3, -999.0
25-01-2022, 00:18:19,    120,    0.9,    1.1,   0.00,   0.00, 1028.5,   77.5, -999.0
25-01-2022, 00:18:29,    119,    0.7,    1.1,   0.00,   0.00, 1028.5,   77.6, -999.0
25-01-2022, 00:18:39,    119,    0.8,    1.1,   0.00,   0.00, 1028.5,   77.4, -999.0
25-01-2022, 00:18:49,    119,    0.2,    1.1,   0.00,   0.00, 1028.5,   77.5, -999.0
25-01-2022, 00:18:59,    119,    0.3,    1.2,   0.00,   0.00, 1028.5,   77.8, -999.0
25-01-2022, 00:19:09,    118,    0.1,    1.2,   0.00,   0.00, 1028.4,   77.6, -999.0
25-01-2022, 00:19:19,    118,    0.0,    1.1,   0.00,   0.00, 1028.4,   77.4, -999.0
25-01-2022, 00:19:29,    118,    0.0,    1.1,   0.00,   0.00, 1028.3,   77.4, -999.0
25-01-2022, 00:19:39,    118,    0.0,    1.2,   0.00,   0.00, 1028.3,   77.5, -999.0
25-01-2022, 00:19:49,    118,    0.0,    1.2,   0.00,   0.00, 1028.3,   77.4, -999.0
25-01-2022, 00:19:59,    118,    0.0,    1.2,   0.00,   0.00, 1028.4,   77.6, -999.0
25-01-2022, 00:20:09,    118,    0.8,    1.2,   0.00,   0.00, 1028.5,   77.5, -999.0
25-01-2022, 00:20:19,    119,    1.1,    1.2,   0.00,   0.00, 1028.5,   77.4, -999.0
25-01-2022, 00:20:28,    119,    0.3,    1.1,   0.00,   0.00, 1028.5,   77.0, -999.0
25-01-2022, 00:20:39,    119,    0.0,    1.0,   0.00,   0.00, 1028.4,   76.8, -999.0
25-01-2022, 00:20:49,    119,    0.0,    1.0,   0.00,   0.00, 1028.4,   77.0, -999.0
25-01-2022, 00:20:58,    119,    0.0,    1.0,   0.00,   0.00, 1028.4,   76.9, -999.0
25-01-2022, 00:21:09,    119,    0.0,    1.1,   0.00,   0.00, 1028.4,   77.2, -999.0
25-01-2022, 00:21:19,    119,    0.0,    1.0,   0.00,   0.00, 1028.4,   77.1, -999.0
25-01-2022, 00:21:28,    119,    0.0,    1.0,   0.00,   0.00, 1028.4,   77.0, -999.0
25-01-2022, 00:21:38,    119,    0.0,    0.9,   0.00,   0.00, 1028.3,   77.1, -999.0
25-01-2022, 00:21:48,    119,    0.0,    1.0,   0.00,   0.00, 1028.4,   77.1, -999.0
25-01-2022, 00:21:58,    119,    0.0,    1.0,   0.00,   0.00, 1028.3,   77.3, -999.0
25-01-2022, 00:22:08,    119,    0.0,    1.1,   0.00,   0.00, 1028.3,   77.5, -999.0
25-01-2022, 00:22:18,    119,    0.0,    1.0,   0.00,   0.00, 1028.4,   77.3, -999.0
25-01-2022, 00:22:28,    119,    0.0,    1.0,   0.00,   0.00, 1028.4,   77.4, -999.0
25-01-2022, 00:22:38,    119,    0.0,    1.1,   0.00,   0.00, 1028.4,   77.4, -999.0
25-01-2022, 00:22:48,    119,    0.0,    1.1,   0.00,   0.00, 1028.4,   77.6, -999.0
25-01-2022, 00:22:58,    118,    0.0,    1.2,   0.00,   0.00, 1028.4,   77.6, -999.0
25-01-2022, 00:23:08,    119,    0.0,    1.1,   0.00,   0.00, 1028.4,   77.4, -999.0
25-01-2022, 00:23:18,    119,    0.0,    1.2,   0.00,   0.00, 1028.4,   77.5, -999.0
25-01-2022, 00:23:28,    119,    0.0,    1.2,   0.00,   0.00, 1028.4,   77.5, -999.0
25-01-2022, 00:23:38,    119,    0.0,    1.1,   0.00,   0.00, 1028.4,   77.5, -999.0
25-01-2022, 00:23:48,    119,    0.0,    1.1,   0.00,   0.00, 1028.4,   77.3, -999.0
25-01-2022, 00:23:58,    119,    0.0,    1.2,   0.00,   0.00, 1028.4,   77.5, -999.0
25-01-2022, 00:24:07,    119,    0.0,    1.2,   0.00,   0.00, 1028.4,   77.5, -999.0
25-01-2022, 00:24:18,    119,    0.0,    1.2,   0.00,   0.00, 1028.4,   77.6, -999.0
25-01-2022, 00:24:28,    119,    0.0,    1.3,   0.00,   0.00, 1028.4,   77.5, -999.0
25-01-2022, 00:24:37,    119,    0.0,    1.2,   0.00,   0.00, 1028.4,   77.3, -999.0
25-01-2022, 00:24:47,    119,    0.0,    1.2,   0.00,   0.00, 1028.4,   77.2, -999.0
25-01-2022, 00:24:58,    119,    0.0,    1.2,   0.00,   0.00, 1028.4,   77.3, -999.0
25-01-2022, 00:25:07,    119,    0.0,    1.2,   0.00,   0.00, 1028.5,   77.2, -999.0
25-01-2022, 00:25:17,    119,    0.0,    1.3,   0.00,   0.00, 1028.4,   77.1, -999.0
25-01-2022, 00:25:27,    119,    0.0,    1.3,   0.00,   0.00, 1028.5,   77.2, -999.0
25-01-2022, 00:25:37,    119,    0.0,    1.3,   0.00,   0.00, 1028.4,   77.3, -999.0
25-01-2022, 00:25:47,    119,    0.0,    1.3,   0.00,   0.00, 1028.5,   77.3, -999.0
25-01-2022, 00:25:57,    119,    0.0,    1.4,   0.00,   0.00, 1028.5,   77.2, -999.0
25-01-2022, 00:26:07,    119,    0.0,    1.3,   0.00,   0.00, 1028.5,   77.1, -999.0
25-01-2022, 00:26:17,    119,    0.0,    1.3,   0.00,   0.00, 1028.4,   77.1, -999.0
25-01-2022, 00:26:27,    119,    0.0,    1.2,   0.00,   0.00, 1028.5,   76.6, -999.0
25-01-2022, 00:26:37,    119,    0.0,    1.1,   0.00,   0.00, 1028.5,   76.7, -999.0
25-01-2022, 00:26:47,    119,    0.0,    1.1,   0.00,   0.00, 1028.5,   76.6, -999.0
25-01-2022, 00:26:57,    119,    0.0,    1.0,   0.00,   0.00, 1028.5,   76.5, -999.0
25-01-2022, 00:27:07,    119,    0.0,    1.0,   0.00,   0.00, 1028.5,   76.4, -999.0
25-01-2022, 00:27:16,    119,    0.0,    1.0,   0.00,   0.00, 1028.5,   76.6, -999.0
25-01-2022, 00:27:27,    119,    0.0,    1.1,   0.00,   0.00, 1028.5,   76.9, -999.0
25-01-2022, 00:27:37,    119,    0.0,    1.1,   0.00,   0.00, 1028.5,   77.0, -999.0
25-01-2022, 00:27:46,    119,    0.0,    1.1,   0.00,   0.00, 1028.5,   77.0, -999.0
25-01-2022, 00:27:57,    119,    0.0,    1.0,   0.00,   0.00, 1028.5,   76.9, -999.0
25-01-2022, 00:28:07,    119,    0.0,    1.1,   0.00,   0.00, 1028.5,   76.8, -999.0
25-01-2022, 00:28:16,    118,    0.0,    1.0,   0.00,   0.00, 1028.5,   76.8, -999.0
25-01-2022, 00:28:26,    119,    0.0,    1.1,   0.00,   0.00, 1028.5,   76.8, -999.0
25-01-2022, 00:28:36,    119,    0.0,    1.1,   0.00,   0.00, 1028.5,   77.0, -999.0
25-01-2022, 00:28:46,    119,    0.0,    1.1,   0.00,   0.00, 1028.5,   77.0, -999.0
25-01-2022, 00:28:56,    119,    0.0,    1.1,   0.00,   0.00, 1028.5,   77.1, -999.0
25-01-2022, 00:29:06,    119,    0.0,    1.1,   0.00,   0.00, 1028.5,   77.1, -999.0
25-01-2022, 00:29:16,    119,    0.0,    1.1,   0.00,   0.00, 1028.5,   76.9, -999.0
25-01-2022, 00:29:26,    119,    0.0,    1.0,   0.00,   0.00, 1028.5,   76.5, -999.0
25-01-2022, 00:29:36,    119,    0.0,    1.0,   0.00,   0.00, 1028.5,   76.6, -999.0
25-01-2022, 00:29:46,    119,    0.0,    1.0,   0.00,   0.00, 1028.5,   76.6, -999.0
25-01-2022, 00:29:56,    119,    0.0,    1.0,   0.00,   0.00, 1028.5,   76.8, -999.0
25-01-2022, 00:30:06,    119,    0.0,    1.0,   0.00,   0.00, 1028.5,   76.9, -999.0
25-01-2022, 00:30:16,    119,    0.0,    1.1,   0.00,   0.00, 1028.5,   77.1, -999.0
25-01-2022, 00:30:26,    119,    0.0,    1.1,   0.00,   0.00, 1028.5,   77.2, -999.0
25-01-2022, 00:30:36,    119,    0.0,    1.1,   0.00,   0.00, 1028.5,   77.1, -999.0
25-01-2022, 00:30:46,    119,    0.0,    1.1,   0.00,   0.00, 1028.5,   77.2, -999.0
25-01-2022, 00:30:55,    119,    0.0,    1.1,   0.00,   0.00, 1028.5,   77.3, -999.0
25-01-2022, 00:31:06,    119,    0.0,    1.1,   0.00,   0.00, 1028.5,   77.2, -999.0
25-01-2022, 00:31:16,    119,    0.0,    1.1,   0.00,   0.00, 1028.5,   77.1, -999.0
25-01-2022, 00:31:25,    119,    0.0,    1.0,   0.00,   0.00, 1028.5,   77.0, -999.0
25-01-2022, 00:31:35,    119,    0.0,    1.0,   0.00,   0.00, 1028.5,   77.0, -999.0
25-01-2022, 00:31:46,    119,    0.0,    1.0,   0.00,   0.00, 1028.5,   76.9, -999.0
25-01-2022, 00:31:55,    119,    0.0,    1.0,   0.00,   0.00, 1028.5,   77.1, -999.0
25-01-2022, 00:32:05,    119,    0.0,    1.1,   0.00,   0.00, 1028.5,   77.1, -999.0
25-01-2022, 00:32:15,    119,    0.0,    1.0,   0.00,   0.00, 1028.5,   77.1, -999.0
25-01-2022, 00:32:25,    119,    0.0,    1.0,   0.00,   0.00, 1028.5,   77.0, -999.0
25-01-2022, 00:32:35,    119,    0.0,    1.0,   0.00,   0.00, 1028.5,   77.0, -999.0
25-01-2022, 00:32:45,    119,    0.0,    1.0,   0.00,   0.00, 1028.5,   76.9, -999.0
25-01-2022, 00:32:55,    119,    0.0,    1.0,   0.00,   0.00, 1028.5,   76.9, -999.0
25-01-2022, 00:33:05,    119,    0.0,    1.0,   0.00,   0.00, 1028.5,   76.9, -999.0
25-01-2022, 00:33:15,    119,    0.0,    0.9,   0.00,   0.00, 1028.5,   77.0, -999.0
25-01-2022, 00:33:25,    119,    0.0,    0.9,   0.00,   0.00, 1028.5,   77.0, -999.0
25-01-2022, 00:33:35,    120,    0.0,    0.9,   0.00,   0.00, 1028.5,   76.8, -999.0
25-01-2022, 00:33:45,    119,    0.0,    0.9,   0.00,   0.00, 1028.5,   77.0, -999.0
25-01-2022, 00:33:55,    119,    0.0,    0.9,   0.00,   0.00, 1028.5,   77.1, -999.0
25-01-2022, 00:34:05,    119,    0.0,    0.9,   0.00,   0.00, 1028.5,   77.0, -999.0
25-01-2022, 00:34:15,    119,    0.0,    0.9,   0.00,   0.00, 1028.5,   77.1, -999.0
25-01-2022, 00:34:25,    119,    0.0,    1.0,   0.00,   0.00, 1028.5,   77.0, -999.0
25-01-2022, 00:34:34,    119,    0.0,    0.9,   0.00,   0.00, 1028.5,   77.0, -999.0
25-01-2022, 00:34:45,    119,    0.0,    0.9,   0.00,   0.00, 1028.5,   77.1, -999.0
25-01-2022, 00:34:55,    119,    0.0,    0.9,   0.00,   0.00, 1028.5,   77.1, -999.0
25-01-2022, 00:35:04,    119,    0.0,    1.0,   0.00,   0.00, 1028.6,   77.0, -999.0
25-01-2022, 00:35:14,    119,    0.0,    1.0,   0.00,   0.00, 1028.6,   77.1, -999.0
25-01-2022, 00:35:25,    119,    0.0,    1.0,   0.00,   0.00, 1028.6,   77.0, -999.0
25-01-2022, 00:35:34,    119,    0.0,    1.0,   0.00,   0.00, 1028.6,   77.2, -999.0
25-01-2022, 00:35:44,    119,    0.0,    1.0,   0.00,   0.00, 1028.6,   77.0, -999.0
25-01-2022, 00:35:54,    120,    0.0,    0.9,   0.00,   0.00, 1028.5,   77.1, -999.0
25-01-2022, 00:36:04,    119,    0.0,    1.0,   0.00,   0.00, 1028.5,   77.1, -999.0
25-01-2022, 00:36:14,    119,    0.0,    0.9,   0.00,   0.00, 1028.5,   77.2, -999.0
25-01-2022, 00:36:24,    119,    0.0,    0.9,   0.00,   0.00, 1028.5,   77.1, -999.0
25-01-2022, 00:36:34,    119,    0.0,    0.9,   0.00,   0.00, 1028.5,   77.1, -999.0
25-01-2022, 00:36:44,    119,    0.0,    0.9,   0.00,   0.00, 1028.5,   76.9, -999.0
25-01-2022, 00:36:54,    119,    0.0,    0.8,   0.00,   0.00, 1028.6,   76.9, -999.0
25-01-2022, 00:37:04,    119,    0.0,    0.8,   0.00,   0.00, 1028.5,   77.0, -999.0
25-01-2022, 00:37:14,    119,    0.0,    0.8,   0.00,   0.00, 1028.6,   77.0, -999.0
25-01-2022, 00:37:24,    119,    0.0,    0.7,   0.00,   0.00, 1028.5,   77.0, -999.0
25-01-2022, 00:37:34,    119,    0.0,    0.7,   0.00,   0.00, 1028.5,   76.9, -999.0
25-01-2022, 00:37:43,    119,    0.0,    0.8,   0.00,   0.00, 1028.5,   77.0, -999.0
25-01-2022, 00:37:54,    119,    0.0,    0.7,   0.00,   0.00, 1028.5,   77.1, -999.0
25-01-2022, 00:38:04,    119,    0.0,    0.7,   0.00,   0.00, 1028.5,   77.0, -999.0
25-01-2022, 00:38:13,    117,    0.0,    0.6,   0.00,   0.00, 1028.5,   77.1, -999.0
25-01-2022, 00:38:23,    119,    0.0,    0.7,   0.00,   0.00, 1028.5,   77.0, -999.0
25-01-2022, 00:38:34,    119,    0.0,    0.7,   0.00,   0.00, 1028.6,   76.9, -999.0
25-01-2022, 00:38:43,    119,    0.0,    0.7,   0.00,   0.00, 1028.5,   77.0, -999.0
25-01-2022, 00:38:53,    119,    0.0,    0.7,   0.00,   0.00, 1028.6,   77.1, -999.0
25-01-2022, 00:39:04,    119,    0.0,    0.7,   0.00,   0.00, 1028.5,   77.3, -999.0
25-01-2022, 00:39:13,    119,    0.0,    0.7,   0.00,   0.00, 1028.5,   77.1, -999.0
25-01-2022, 00:39:23,    119,    0.0,    0.7,   0.00,   0.00, 1028.5,   77.3, -999.0
25-01-2022, 00:39:33,    119,    0.0,    0.7,   0.00,   0.00, 1028.5,   77.3, -999.0
25-01-2022, 00:39:43,    119,    0.0,    0.7,   0.00,   0.00, 1028.5,   77.3, -999.0
25-01-2022, 00:39:53,    119,    0.0,    0.7,   0.00,   0.00, 1028.6,   77.3, -999.0
25-01-2022, 00:40:03,    119,    0.0,    0.6,   0.00,   0.00, 1028.5,   77.3, -999.0
25-01-2022, 00:40:13,    119,    0.0,    0.7,   0.00,   0.00, 1028.6,   77.4, -999.0
25-01-2022, 00:40:23,    119,    0.0,    0.6,   0.00,   0.00, 1028.6,   77.3, -999.0
25-01-2022, 00:40:33,    119,    0.0,    0.6,   0.00,   0.00, 1028.5,   77.2, -999.0
25-01-2022, 00:40:43,    119,    0.0,    0.5,   0.00,   0.00, 1028.5,   77.3, -999.0
25-01-2022, 00:40:52,    119,    0.0,    0.6,   0.00,   0.00, 1028.5,   77.4, -999.0
25-01-2022, 00:41:03,    119,    0.0,    0.6,   0.00,   0.00, 1028.5,   77.5, -999.0
25-01-2022, 00:41:13,    119,    0.0,    0.6,   0.00,   0.00, 1028.5,   77.6, -999.0
25-01-2022, 00:41:22,    119,    0.0,    0.6,   0.00,   0.00, 1028.5,   77.5, -999.0
25-01-2022, 00:41:33,    119,    0.0,    0.6,   0.00,   0.00, 1028.5,   77.5, -999.0
25-01-2022, 00:41:43,    119,    0.0,    0.6,   0.00,   0.00, 1028.5,   77.5, -999.0
25-01-2022, 00:41:52,    119,    0.0,    0.5,   0.00,   0.00, 1028.5,   77.7, -999.0
25-01-2022, 00:42:02,    119,    0.0,    0.6,   0.00,   0.00, 1028.5,   77.7, -999.0
25-01-2022, 00:42:13,    119,    0.0,    0.6,   0.00,   0.00, 1028.6,   77.6, -999.0
25-01-2022, 00:42:22,    119,    0.0,    0.5,   0.00,   0.00, 1028.5,   77.5, -999.0
25-01-2022, 00:42:32,    119,    0.0,    0.5,   0.00,   0.00, 1028.6,   77.6, -999.0
25-01-2022, 00:42:42,    119,    0.0,    0.5,   0.00,   0.00, 1028.5,   77.6, -999.0
25-01-2022, 00:42:52,    119,    0.0,    0.5,   0.00,   0.00, 1028.5,   77.7, -999.0
25-01-2022, 00:43:02,    119,    0.0,    0.6,   0.00,   0.00, 1028.5,   78.0, -999.0
25-01-2022, 00:43:12,    119,    0.0,    0.6,   0.00,   0.00, 1028.5,   77.9, -999.0
25-01-2022, 00:43:22,    119,    0.0,    0.5,   0.00,   0.00, 1028.5,   78.0, -999.0
25-01-2022, 00:43:32,    119,    0.0,    0.5,   0.00,   0.00, 1028.5,   77.9, -999.0
25-01-2022, 00:43:42,    119,    0.0,    0.6,   0.00,   0.00, 1028.5,   78.1, -999.0
25-01-2022, 00:43:52,    119,    0.0,    0.7,   0.00,   0.00, 1028.5,   78.1, -999.0
25-01-2022, 00:44:02,    119,    0.0,    0.7,   0.00,   0.00, 1028.5,   78.3, -999.0
25-01-2022, 00:44:12,    119,    0.0,    0.7,   0.00,   0.00, 1028.5,   78.4, -999.0
25-01-2022, 00:44:22,    119,    0.0,    0.7,   0.00,   0.00, 1028.5,   78.5, -999.0
25-01-2022, 00:44:31,    119,    0.0,    0.7,   0.00,   0.00, 1028.5,   78.5, -999.0
25-01-2022, 00:44:42,    119,    0.0,    0.8,   0.00,   0.00, 1028.5,   78.4, -999.0
25-01-2022, 00:44:52,    119,    0.0,    0.8,   0.00,   0.00, 1028.5,   78.5, -999.0
25-01-2022, 00:45:01,    119,    0.0,    0.8,   0.00,   0.00, 1028.5,   78.3, -999.0
25-01-2022, 00:45:11,    119,    0.0,    0.9,   0.00,   0.00, 1028.5,   78.4, -999.0
25-01-2022, 00:45:22,    119,    0.0,    0.8,   0.00,   0.00, 1028.5,   78.5, -999.0
25-01-2022, 00:45:31,    119,    0.0,    0.8,   0.00,   0.00, 1028.5,   78.5, -999.0
25-01-2022, 00:45:41,    119,    0.0,    0.7,   0.00,   0.00, 1028.5,   78.4, -999.0
25-01-2022, 00:45:52,    119,    0.0,    0.8,   0.00,   0.00, 1028.5,   78.4, -999.0
25-01-2022, 00:46:01,    119,    0.0,    0.8,   0.00,   0.00, 1028.5,   78.2, -999.0
25-01-2022, 00:46:11,    119,    0.0,    0.8,   0.00,   0.00, 1028.5,   78.4, -999.0
25-01-2022, 00:46:21,    119,    0.0,    0.8,   0.00,   0.00, 1028.5,   78.2, -999.0
25-01-2022, 00:46:31,    119,    0.0,    0.8,   0.00,   0.00, 1028.5,   78.2, -999.0
25-01-2022, 00:46:41,    119,    0.0,    0.8,   0.00,   0.00, 1028.6,   78.4, -999.0